Fort Collins, CO

2:11 PM MST on December 14, 2019 (GMT -0700)
Fort Collins-Loveland Municipal

Weather History for KFNL - October, 2019

Change the Weather History Date:

Sunday, October 6, 2019

  Actual Average Record
Temperature  
Mean Temperature 49 °F -  
Max Temperature 62 °F - 84 °F (2007)
Min Temperature 36 °F - 26 °F (2001)
Degree Days  
Heating Degree Days 16    
Month to date heating degree days 81  
Cooling Degree Days 0    
Month to date cooling degree days 0  
Growing Degree Days 3 (Base 50)    
Moisture  
Dew Point 23 °F    
Average Humidity 45    
Maximum Humidity 70    
Minimum Humidity 20    
Precipitation  
Precipitation 0.00 in - 1.80 in (2001)
Snow  
Snow 0.00 in - - ()
Snow Depth 0.00 in    
Sea Level Pressure  
Sea Level Pressure 30.22 in    
Wind  
Wind Speed 11 mph (NE)    
Max Wind Speed 18 mph    
Max Gust Speed 24 mph    
Visibility 10 miles    
Events      
T = Trace of Precipitation, MM = Missing Value Source: NWS Daily Summary

Daily Weather History Graph

Daily Weather History Graph

Search for Another Location

Airport or City:

Astronomy

Oct. 06, 2019 Rise Set
Actual Time 7:01 AM MDT 6:34 PM MDT
Civil Twilight 6:34 AM MDT 7:01 PM MDT
Nautical Twilight 6:02 AM MDT 7:33 PM MDT
Astronomical Twilight 5:30 AM MDT 8:04 PM MDT
Moon 3:16 PM MDT (10/6) 12:00 AM MDT (10/6)
Length of Visible Light 12h 27m
Length of Day
11h 32m
First Quarter, 60% of the Moon is Illuminated
Oct 6
First Quarter
Oct 13
Full
Oct 21
Last Quarter
Oct 27
New
Nov 4
First Quarter

Hourly Weather History & Observations

Time (MDT) Temp. Windchill Dew Point Humidity Pressure Visibility Wind Dir Wind Speed Gust Speed Precip Events Conditions
12:56 AM 48.0 °F - 26.1 °F 42% 30.02 in 10.0 mi NNE 9.2 mph - N/A   Scattered Clouds
1:56 AM 48.9 °F - 27.0 °F 43% 30.05 in 10.0 mi North 10.4 mph - N/A   Mostly Cloudy
2:56 AM 52.0 °F - 19.9 °F 28% 30.06 in 10.0 mi NNE 17.3 mph - N/A   Overcast
3:56 AM 50.0 °F - 21.9 °F 33% 30.09 in 10.0 mi NNE 18.4 mph - N/A   Overcast
4:56 AM 50.0 °F - 21.9 °F 33% 30.13 in 10.0 mi NE 16.1 mph 24.2 mph N/A   Overcast
5:56 AM 46.9 °F - 25.0 °F 42% 30.19 in 10.0 mi North 15.0 mph - N/A   Overcast
6:56 AM 44.1 °F 37.7 °F 23.0 °F 43% 30.25 in 10.0 mi NE 12.7 mph - N/A   Scattered Clouds
7:56 AM 45.0 °F 38.2 °F 21.9 °F 40% 30.28 in 10.0 mi NE 15.0 mph - N/A   Clear
8:56 AM 48.0 °F - 21.9 °F 36% 30.31 in 10.0 mi NE 8.1 mph - N/A   Clear
9:56 AM 52.0 °F - 19.9 °F 28% 30.32 in 10.0 mi North 10.4 mph - N/A   Clear
10:56 AM 55.0 °F - 19.0 °F 24% 30.33 in 10.0 mi WNW 8.1 mph - N/A   Clear
11:56 AM 55.0 °F - 21.0 °F 27% 30.33 in 10.0 mi SW 8.1 mph - N/A   Clear
12:56 PM 59.0 °F - 21.0 °F 23% 30.29 in 10.0 mi SSW 10.4 mph - N/A   Clear
1:56 PM 59.0 °F - 19.9 °F 22% 30.25 in 10.0 mi Variable 6.9 mph - N/A   Clear
2:56 PM 61.0 °F - 21.9 °F 22% 30.21 in 10.0 mi SSW 10.4 mph - N/A   Clear
3:56 PM 61.0 °F - 21.0 °F 21% 30.21 in 10.0 mi South 9.2 mph - N/A   Clear
4:56 PM 62.1 °F - 21.0 °F 21% 30.20 in 10.0 mi South 8.1 mph - N/A   Clear
5:56 PM 60.1 °F - 19.9 °F 21% 30.22 in 10.0 mi South 8.1 mph - N/A   Clear
6:56 PM 55.0 °F - 25.0 °F 31% 30.25 in 10.0 mi South 4.6 mph - N/A   Clear
7:56 PM 53.1 °F - 21.9 °F 30% 30.27 in 10.0 mi SSE 4.6 mph - N/A   Clear
8:56 PM 48.0 °F - 25.0 °F 41% 30.29 in 10.0 mi SSW 5.8 mph - N/A   Clear
9:56 PM 48.0 °F - 28.0 °F 46% 30.28 in 10.0 mi SSW 3.5 mph - N/A   Clear
10:56 PM 46.0 °F 41.9 °F 27.0 °F 47% 30.28 in 10.0 mi NNE 8.1 mph - N/A   Clear
11:56 PM 39.9 °F 35.1 °F 30.0 °F 68% 30.28 in 10.0 mi North 6.9 mph - N/A   Clear